User: anonymous   Login
Location: Unspecified
(0.0000°N, 0.0000°E)
Time: 06:04:24
(UTC+00:00)
Language:

AAUSAT CUBESAT 2 - Orbit

View from above orbital plane
View from above orbital plane
View from above satellite
View from above satellite

Ground track
Ground track

The orbit data is extracted from the following two-line orbital elements,

1 32788U 08021F   19082.95511244 +.00000167 +00000-0 +20379-4 0  9999
2 32788 097.5033 102.5013 0013146 126.4514 233.7921 14.94635818591862
Epoch (UTC): 23 March 2019 22:55:21
Eccentricity: 0.0013146
inclination: 97.5033°
perigee height: 574 km
apogee height: 592 km
right ascension of ascending node: 102.5013°
argument of perigee: 126.4514°
revolutions per day: 14.94635818
mean anomaly at epoch: 233.7921°
orbit number at epoch: 59186

The dashed part of the orbit path shows where the satellite is in the earth's shadow,  

DLR